Location: Newark
(48.6461°N, 4.3644°W)
Time: 07:12:54
(UTC+00:00)

Altair - Pass Details

Date: 22 January 2021
Orbit: 1501 x 1682 km, 47.2° (Epoch: 24 February)

Event Time Altitude Azimuth Distance (km) Brightness Sun altitude
Exits shadow 03:50:38 - 169° (S) 4,081 9.6 -40.5°
Reaches altitude 10° 03:51:38 10° 165° (SSE) 3,887 9.6 -40.3°
Maximum altitude 03:57:46 18° 126° (SE) 3,295 9.5 -39.3°
Drops below altitude 10° 04:03:57 10° 88° (E) 3,945 10.3 -38.3°
Sets 04:08:25 0° 71° (ENE) 4,940 11.1 -37.6°
